Location: Shenandoah County Park
(38.9356°N, 78.4524°W)
Time: 11:26:49
(UTC-04:00)

METEOR M2 - Visible Passes

Search period start: 21 March 2023 00:00
Search period end: 31 March 2023 00:00
Orbit: 819 x 826 km, 98.4° (Epoch: 21 March)

Date Brightness Start Highest point End Pass type
(mag) Time Alt. Az. Time Alt. Az. Time Alt. Az.
21 Mar ? 20:31:11 10° W 20:32:07 10° W 20:33:02 10° WNW visible
22 Mar ? 20:08:27 10° SW 20:11:53 17° W 20:15:19 10° NW visible
23 Mar ? 06:45:32 10° NE 06:50:00 26° E 06:54:26 10° SSE visible
24 Mar ? 06:26:24 10° NE 06:29:50 17° E 06:33:14 10° SE visible
25 Mar ? 06:08:39 10° ENE 06:09:36 10° E 06:10:32 10° E visible
26 Mar ? 20:31:49 10° W 20:32:22 10° W 20:32:54 10° W visible
27 Mar ? 20:08:46 10° SW 20:12:07 17° W 20:15:30 10° NW visible
29 Mar ? 06:26:35 10° NE 06:30:04 17° E 06:33:32 10° SE visible
30 Mar ? 06:08:40 10° ENE 06:09:50 11° E 06:11:00 10° ESE visible
